Wind_Speed
22 16 11 12 11 8 10 8 9 9 5 3 3 5 5 6 9 11 10 11 11 10 9 7 6 8 9 10 11 10 9 7 8 7 7 3 4 5 5 4 3 4 4
22 16 11 9 11 9 10 8 8 7 5 4 3 3 6 7 9 9 9 9 10 8 7 5 5 7 9 9 11 10 10 6 7 6 5 4 2 6 8 7 5 3 5
18 12 14 13 11 11 8 8 7 7 6 4 4 6 7 8 8 7 6 6 6 5 6 5 5 6 8 9 10 9 9 10 9 10 12 8 1 5 6 6 4 4 5
15 14 13 13 12 10 9 9 8 7 5 6 7 7 8 9 8 7 7 7 5 3 1 2 3 5 7 9 9 12 11 10 12 15 20 5 5 4 4 3 2 2 3
15 14 12 12 12 11 12 10 9 9 11 12 12 13 13 13 12 10 9 7 5 4 3 1 1 2 5 6 8 7 9 10 14 19 22 7 6 4 2 5 4 4 4
12 12 13 12 12 15 13 13 16 21 21 19 18 18 17 17 15 14 11 10 8 6 4 2 0 1 2 3 5 5 6 9 11 13 17 14 12 6 5 6 5 6 7
11 11 11 12 14 16 16 19 20 23 24 24 23 21 20 18 18 18 16 15 14 11 10 7 5 5 3 3 2 5 9 11 9 11 14 15 16 15 12 2 2 4 8
11 9 11 12 15 17 17 17 20 22 22 22 22 21 20 21 20 19 21 20 19 19 17 14 10 9 7 7 4 7 9 9 9 11 10 11 13 13 11 9 5 7 9
10 9 10 12 17 18 17 18 20 23 23 22 21 21 20 21 18 20 21 20 19 19 17 15 12 9 7 4 5 4 6 8 9 9 8 10 10 10 8 8 8 7 8
9 9 9 14 18 19 18 19 19 21 22 19 19 19 18 19 19 16 18 18 16 16 15 14 13 11 9 9 9 8 7 8 10 9 9 8 8 8 7 6 7 8 10
7 9 12 17 19 18 18 17 19 21 19 16 18 15 17 17 16 18 16 15 15 16 17 15 12 13 13 13 11 10 10 10 10 10 11 12 11 11 11 9 9 10 10
7 11 14 19 18 18 18 16 20 20 19 17 15 14 17 15 17 15 16 15 17 18 19 19 20 22 23 22 20 13 8 9 8 8 7 8 9 10 11 10 10 11 12
9 14 17 19 19 18 18 18 20 19 18 16 14 14 16 16 18 15 15 20 15 18 18 18 18 17 17 17 19 21 10 3 5 4 5 6 9 10 10 12 13 16 18
13 16 17 20 18 19 20 18 19 20 18 18 18 17 20 17 17 12 12 12 15 16 16 16 19 21 21 17 15 22 15 9 3 2 6 11 14 15 16 21 23 22 22
15 17 18 19 18 20 21 22 19 23 21 19 17 15 20 17 15 12 15 14 12 14 12 15 20 20 16 18 18 22 20 16 11 8 9 15 18 22 25 22 23 25 22
17 18 19 18 19 19 22 23 21 20 18 15 14 14 16 14 14 13 11 14 14 11 12 16 17 19 22 22 23 23 24 22 20 18 17 17 16 18 19 23 24 25 25
18 19 18 19 19 18 23 21 20 20 15 12 13 14 14 15 16 15 15 15 13 7 11 15 19 23 23 22 22 20 18 19 19 19 20 20 22 24 22 21 22 23 24
17 18 18 19 20 19 20 17 19 15 11 12 11 13 13 12 13 14 15 15 13 11 15 18 18 20 20 19 23 16 17 16 18 20 21 19 18 20 21 21 26 25 26
17 19 19 20 20 20 18 17 14 13 9 12 11 12 11 12 13 14 13 12 13 11 14 16 20 20 20 24 23 21 18 19 21 21 22 21 21 21 23 25 28 31 31
16 18 20 20 20 20 17 15 12 12 8 10 8 7 11 12 12 13 10 10 13 10 10 14 18 21 21 24 25 18 14 18 23 23 21 24 25 26 24 26 29 31 34
15 17 19 20 20 19 16 14 10 8 4 7 8 8 10 9 10 11 9 8 8 7 13 18 25 24 25 25 24 24 21 22 25 27 26 24 26 27 29 30 32 32 35
13 16 18 19 19 17 14 11 9 8 5 5 5 6 8 7 9 9 9 6 8 11 17 21 21 24 25 26 20 19 17 19 25 28 30 31 30 32 34 35 36 36 37
14 13 16 17 17 15 12 10 8 5 5 4 4 5 6 6 7 7 7 6 7 12 18 19 19 23 25 29 26 22 19 19 19 25 27 29 33 35 36 36 39 39 41
13 11 11 14 13 11 9 9 7 5 5 3 2 5 4 4 5 5 6 6 10 14 16 19 20 23 27 33 23 13 17 20 18 22 29 35 36 35 36 37 38 41 46
12 13 12 11 11 9 8 7 6 3 3 3 4 4 2 3 4 3 5 9 12 13 14 19 22 27 28 29 20 18 18 23 25 26 28 33 36 36 35 37 40 44 42
11 12 12 12 11 9 8 7 6 5 3 3 1 2 2 2 1 4 6 7 8 12 18 23 27 27 28 23 16 21 23 21 23 26 27 30 33 33 35 40 41 40 36
Wind_Direction
96 102 118 141 135 125 107 105 113 109 113 118 90 75 83 64 81 84 77 70 75 70 77 74 68 69 67 63 55 52 51 43 33 26 13 22 110 112 92 61 66 85 90
98 115 127 135 124 116 106 116 106 96 103 100 73 69 69 81 86 79 74 62 63 68 76 75 59 55 64 66 60 50 47 34 34 14 356 352 17 84 74 57 35 55 79
102 133 138 128 116 111 97 101 100 93 96 81 84 74 80 82 75 66 58 50 57 68 65 61 56 48 49 56 61 53 34 17 12 343 328 285 111 58 62 62 44 51 77
116 138 121 104 115 102 96 89 86 81 83 94 90 92 87 86 86 87 80 74 79 111 65 61 50 48 37 39 35 32 22 1 2 1 344 42 122 74 358 28 8 21 48
123 121 117 124 111 91 83 82 76 87 92 97 99 92 90 84 80 80 85 95 110 136 162 162 235 34 46 47 49 21 7 11 8 4 19 53 67 29 305 309 306 334 355
117 120 118 114 98 87 86 82 98 88 85 94 91 89 87 89 90 86 87 89 86 86 99 116 214 270 2 21 39 22 357 359 358 20 36 34 29 1 326 270 293 338 350
113 106 115 106 91 94 92 94 88 88 84 89 89 88 88 84 76 71 72 77 84 86 83 87 85 65 49 38 32 359 339 345 348 357 17 28 27 29 33 111 223 325 332
115 114 112 102 99 97 100 91 91 86 87 87 88 91 87 85 79 79 80 82 82 83 84 84 78 75 68 72 40 357 348 357 357 5 17 30 22 21 35 35 352 332 327
112 122 112 106 107 104 107 94 89 86 87 87 91 91 93 92 88 78 78 78 76 79 79 78 79 79 78 57 54 42 11 348 353 3 7 11 14 6 355 350 336 324 326
126 127 110 116 109 111 103 97 91 91 92 92 92 85 85 85 78 84 88 80 77 80 75 65 59 53 44 34 21 14 354 344 337 338 334 344 340 336 343 340 327 339 333
138 122 118 119 110 109 99 95 94 91 88 87 81 81 79 84 85 87 86 68 63 56 54 52 47 35 20 14 9 359 340 329 323 325 326 327 323 328 340 334 336 334 326
119 118 123 116 114 108 100 99 96 93 91 88 79 79 88 76 81 77 70 64 54 49 45 40 32 26 17 4 357 12 356 331 336 340 342 329 330 329 331 323 319 322 325
121 122 125 116 119 108 106 100 95 91 88 88 94 96 102 85 76 65 64 55 48 50 43 33 34 29 15 358 353 353 344 318 281 314 325 322 325 329 325 318 328 327 322
123 125 120 122 123 113 105 95 92 95 99 99 103 95 94 88 77 67 52 41 42 42 28 35 46 26 26 24 357 7 33 23 329 330 335 333 334 327 322 323 327 317 310
124 122 121 129 125 117 108 102 100 97 102 100 95 93 93 89 78 71 59 47 46 41 39 35 38 32 41 33 29 25 30 39 31 7 342 333 330 331 337 345 340 337 332
130 126 129 131 127 118 110 110 116 105 100 96 92 79 79 75 74 65 59 53 44 55 29 25 37 20 11 6 17 24 20 20 17 13 0 350 348 341 332 327 325 325 323
136 133 133 130 127 121 114 114 115 102 111 100 93 78 59 54 47 45 47 53 56 42 21 25 25 16 10 8 9 11 8 8 4 3 351 340 330 322 321 323 325 324 315
140 138 138 133 130 128 119 119 119 122 110 95 80 67 49 41 48 39 45 44 58 30 32 30 16 15 11 16 359 349 347 357 2 2 359 348 342 336 330 326 322 322 321
149 146 143 138 135 134 133 129 133 130 115 83 67 63 42 33 40 43 48 48 60 47 35 27 15 3 6 9 4 357 342 351 349 351 354 348 343 334 329 324 324 324 325
148 146 143 141 137 140 142 134 131 119 84 82 67 54 48 27 30 45 58 60 78 60 28 15 17 9 5 4 16 6 357 343 341 343 347 346 347 341 330 328 321 319 319
150 148 145 144 142 146 149 146 148 140 102 78 62 39 39 29 15 46 69 77 86 48 30 16 12 7 11 9 5 3 358 351 342 337 338 339 337 335 332 326 322 321 317
166 153 147 145 148 154 156 157 154 147 115 86 58 34 32 23 8 36 73 81 64 37 18 17 20 16 9 4 358 359 351 339 337 339 335 338 333 331 329 326 324 322 317
176 170 156 152 157 162 162 157 159 152 121 99 64 50 35 4 1 35 81 78 39 22 14 4 9 359 355 352 343 339 338 341 344 337 335 336 326 328 329 324 322 319 314
177 174 167 161 161 166 167 169 173 166 128 114 79 68 52 345 351 30 74 48 24 13 360 344 349 340 336 344 345 324 330 330 334 320 324 328 328 326 326 323 318 315 313
170 171 167 160 163 175 166 162 174 172 151 129 93 72 42 348 1 38 37 31 20 0 339 338 339 342 344 338 346 328 322 329 328 328 328 328 324 324 325 319 318 316 315
171 165 166 171 177 181 169 170 176 182 162 156 99 21 343 351 29 46 26 15 344 328 345 347 342 342 333 332 325 323 327 326 322 324 325 325 325 324 319 322 321 323 321
Height
5901 5901 5903 5901 5903 5906 5903 5906 5904 5903 5905 5905 5905 5905 5905 5905 5905 5904 5903 5903 5902 5901 5901 5899 5898 5899 5900 5899 5898 5898 5897 5897 5896 5896 5897 5896 5892 5891 5892 5895 5896 5894 5893
5902 5902 5903 5905 5903 5907 5906 5907 5906 5906 5907 5907 5907 5907 5906 5906 5905 5904 5903 5903 5903 5903 5902 5901 5901 5901 5900 5900 5900 5900 5900 5898 5899 5900 5901 5901 5900 5895 5892 5892 5895 5894 5892
5904 5905 5903 5904 5907 5907 5908 5908 5908 5908 5908 5908 5908 5908 5907 5906 5905 5905 5905 5905 5904 5904 5903 5903 5903 5903 5903 5903 5902 5901 5899 5898 5900 5899 5899 5899 5899 5895 5893 5892 5894 5895 5893
5904 5905 5907 5907 5908 5909 5909 5910 5910 5909 5909 5910 5909 5908 5907 5906 5905 5905 5904 5905 5905 5904 5903 5903 5904 5904 5904 5905 5904 5903 5900 5897 5898 5898 5897 5897 5896 5892 5894 5892 5893 5894 5893
5907 5907 5908 5910 5910 5910 5911 5912 5911 5911 5911 5910 5909 5909 5908 5907 5906 5905 5904 5904 5903 5903 5902 5903 5903 5904 5905 5905 5906 5903 5901 5898 5896 5897 5894 5892 5892 5892 5893 5893 5894 5893 5892
5908 5910 5911 5911 5912 5912 5914 5913 5914 5913 5912 5911 5911 5911 5910 5908 5907 5906 5905 5904 5904 5903 5903 5903 5903 5904 5905 5905 5906 5904 5901 5899 5897 5897 5895 5892 5892 5893 5891 5892 5894 5892 5891
5911 5913 5912 5913 5914 5914 5916 5917 5916 5915 5914 5913 5913 5913 5912 5911 5910 5908 5907 5905 5903 5903 5903 5903 5903 5904 5905 5905 5905 5904 5902 5900 5898 5897 5895 5895 5892 5892 5891 5891 5893 5893 5892
5912 5914 5914 5915 5915 5917 5919 5918 5918 5917 5916 5916 5915 5915 5915 5913 5912 5910 5908 5906 5904 5903 5903 5903 5903 5905 5904 5906 5906 5905 5903 5902 5900 5898 5896 5896 5896 5895 5894 5893 5893 5892 5891
5914 5915 5915 5916 5917 5919 5920 5920 5919 5919 5920 5919 5918 5918 5917 5915 5915 5915 5913 5911 5910 5907 5905 5905 5904 5905 5906 5905 5906 5905 5902 5900 5899 5898 5896 5894 5894 5895 5895 5893 5893 5892 5890
5915 5916 5916 5917 5920 5920 5921 5920 5921 5921 5921 5921 5921 5920 5921 5920 5918 5916 5915 5913 5911 5909 5908 5908 5907 5906 5907 5909 5908 5908 5905 5903 5902 5901 5899 5899 5898 5897 5895 5893 5891 5889 5888
5917 5917 5918 5919 5921 5921 5922 5922 5922 5923 5923 5923 5922 5921 5923 5922 5921 5919 5917 5916 5915 5913 5911 5910 5910 5908 5907 5908 5909 5908 5905 5904 5902 5901 5899 5897 5897 5895 5892 5891 5888 5887 5885
5918 5918 5920 5920 5921 5922 5924 5923 5925 5925 5924 5923 5923 5925 5925 5924 5923 5922 5920 5918 5917 5916 5915 5913 5911 5907 5904 5902 5902 5904 5903 5901 5901 5900 5898 5896 5894 5893 5892 5889 5887 5884 5882
5919 5920 5921 5922 5923 5925 5925 5926 5927 5927 5927 5925 5926 5927 5927 5926 5924 5923 5923 5921 5921 5918 5917 5915 5913 5910 5906 5904 5899 5896 5898 5897 5897 5897 5896 5894 5894 5891 5890 5889 5884 5882 5879
5920 5921 5922 5923 5925 5927 5927 5928 5929 5928 5929 5930 5930 5930 5929 5927 5926 5927 5926 5925 5921 5919 5918 5917 5915 5911 5905 5903 5898 5893 5893 5892 5893 5892 5891 5889 5887 5887 5884 5882 5879 5877 5875
5921 5923 5923 5925 5927 5928 5929 5930 5932 5930 5933 5932 5932 5932 5931 5930 5930 5930 5929 5926 5923 5921 5920 5918 5914 5912 5909 5904 5900 5895 5891 5891 5890 5889 5887 5885 5883 5880 5878 5876 5875 5874 5872
5923 5925 5925 5927 5928 5930 5931 5933 5934 5933 5935 5935 5934 5934 5934 5934 5932 5932 5929 5926 5925 5923 5920 5919 5916 5913 5909 5906 5901 5897 5894 5891 5889 5887 5886 5884 5882 5880 5877 5873 5871 5870 5867
5926 5926 5927 5929 5930 5933 5933 5934 5935 5935 5939 5940 5938 5936 5936 5935 5933 5930 5929 5927 5926 5925 5924 5920 5915 5913 5911 5907 5902 5899 5897 5894 5891 5888 5886 5882 5879 5877 5875 5872 5870 5868 5864
5926 5927 5929 5931 5932 5934 5935 5937 5936 5940 5941 5941 5939 5938 5937 5936 5935 5933 5930 5929 5927 5925 5922 5920 5916 5915 5912 5907 5904 5900 5897 5895 5894 5891 5887 5884 5880 5876 5873 5870 5867 5864 5859
5927 5928 5930 5931 5933 5936 5937 5938 5941 5943 5943 5939 5939 5939 5940 5937 5935 5933 5931 5930 5927 5925 5923 5922 5920 5915 5911 5908 5904 5902 5899 5895 5892 5889 5885 5882 5879 5875 5871 5868 5862 5858 5855
5928 5930 5931 5933 5935 5937 5939 5940 5941 5942 5943 5940 5941 5942 5940 5936 5934 5934 5933 5930 5929 5928 5926 5924 5921 5917 5914 5908 5904 5901 5897 5894 5890 5887 5884 5880 5876 5873 5869 5865 5860 5855 5850
5929 5931 5932 5934 5936 5938 5940 5941 5942 5943 5944 5942 5942 5942 5940 5938 5935 5935 5934 5932 5931 5929 5928 5925 5922 5919 5914 5909 5905 5902 5898 5895 5890 5886 5884 5879 5874 5869 5865 5861 5856 5851 5845
5930 5932 5934 5935 5937 5939 5941 5942 5943 5943 5944 5943 5943 5943 5941 5938 5936 5935 5935 5933 5932 5930 5928 5926 5923 5919 5915 5912 5908 5906 5902 5897 5890 5883 5878 5875 5870 5866 5862 5857 5851 5846 5841
5930 5932 5934 5936 5938 5940 5942 5943 5943 5943 5944 5944 5944 5944 5942 5940 5938 5937 5936 5935 5932 5930 5929 5925 5921 5918 5914 5910 5906 5903 5900 5897 5893 5886 5879 5874 5869 5864 5859 5853 5847 5841 5834
5929 5932 5934 5937 5939 5941 5943 5944 5944 5944 5945 5944 5945 5944 5943 5942 5940 5938 5937 5935 5933 5931 5928 5924 5921 5917 5911 5908 5903 5899 5896 5893 5891 5887 5878 5871 5865 5861 5856 5849 5842 5835 5828
5928 5931 5934 5936 5939 5941 5942 5943 5943 5943 5944 5944 5944 5944 5944 5943 5941 5939 5937 5935 5934 5932 5928 5923 5919 5915 5912 5905 5898 5896 5894 5890 5885 5882 5876 5870 5862 5857 5851 5844 5837 5828 5820
5928 5931 5933 5935 5938 5940 5941 5942 5943 5943 5944 5944 5944 5944 5944 5943 5941 5938 5938 5936 5934 5931 5928 5924 5918 5913 5907 5901 5898 5894 5892 5888 5883 5879 5874 5867 5860 5853 5846 5839 5831 5822 5813